TimeEST,TemperatureF,Dew PointF,Humidity,Sea Level PressureIn,VisibilityMPH,Wind Direction,Wind SpeedMPH,Gust SpeedMPH,PrecipitationIn,Events,Conditions,WindDirDegrees,DateUTC
12:29 AM,30.2,19.4,64,30.02,10.0,West,9.2,-,N/A,,Overcast,260,2013-01-01 05:29:00
12:53 AM,30.0,19.9,66,30.04,10.0,West,10.4,-,N/A,,Overcast,270,2013-01-01 05:53:00
1:14 AM,28.4,19.4,69,30.02,10.0,West,9.2,-,N/A,,Overcast,270,2013-01-01 06:14:00
1:53 AM,28.9,19.0,67,30.04,10.0,West,6.9,-,N/A,,Overcast,270,2013-01-01 06:53:00
2:53 AM,28.0,16.0,61,30.05,10.0,WNW,10.4,-,N/A,,Overcast,300,2013-01-01 07:53:00
3:07 AM,28.4,15.8,59,30.03,10.0,WNW,5.8,-,N/A,,Overcast,300,2013-01-01 08:07:00
3:53 AM,27.0,15.1,61,30.05,10.0,NW,9.2,-,N/A,,Overcast,320,2013-01-01 08:53:00
4:47 AM,26.6,15.8,64,30.04,10.0,WNW,6.9,-,N/A,,Overcast,300,2013-01-01 09:47:00
4:53 AM,27.0,16.0,63,30.06,10.0,NW,8.1,-,N/A,,Overcast,310,2013-01-01 09:53:00
5:53 AM,26.1,15.1,63,30.07,10.0,NW,10.4,-,N/A,,Overcast,320,2013-01-01 10:53:00
6:53 AM,25.0,14.0,63,30.09,10.0,NW,9.2,-,N/A,,Overcast,320,2013-01-01 11:53:00
7:53 AM,24.1,14.0,65,30.10,10.0,NW,8.1,-,N/A,,Overcast,320,2013-01-01 12:53:00
8:53 AM,24.1,14.0,65,30.13,10.0,NNW,9.2,-,N/A,,Mostly Cloudy,330,2013-01-01 13:53:00
9:53 AM,24.1,14.0,65,30.16,10.0,NW,8.1,-,N/A,,Overcast,310,2013-01-01 14:53:00
10:53 AM,23.0,9.0,55,30.18,10.0,WNW,12.7,19.6,N/A,,Overcast,290,2013-01-01 15:53:00
11:53 AM,23.0,9.0,55,30.12,10.0,NNW,15.0,19.6,N/A,,Scattered Clouds,330,2013-01-01 16:53:00
12:53 PM,24.1,8.1,51,30.12,10.0,NW,6.9,-,N/A,,Scattered Clouds,310,2013-01-01 17:53:00
1:53 PM,26.1,10.0,51,30.12,10.0,West,6.9,-,N/A,,Mostly Cloudy,260,2013-01-01 18:53:00
2:53 PM,26.1,9.0,49,30.11,10.0,Variable,5.8,-,N/A,,Mostly Cloudy,0,2013-01-01 19:53:00
3:53 PM,24.1,8.1,51,30.12,10.0,West,8.1,-,N/A,,Scattered Clouds,270,2013-01-01 20:53:00
4:53 PM,21.9,8.1,55,30.12,10.0,WNW,9.2,-,N/A,,Scattered Clouds,290,2013-01-01 21:53:00
5:53 PM,19.9,7.0,57,30.12,10.0,West,4.6,-,N/A,,Scattered Clouds,280,2013-01-01 22:53:00
6:53 PM,19.9,7.0,57,30.12,10.0,West,3.5,-,N/A,,Scattered Clouds,270,2013-01-01 23:53:00
7:53 PM,16.0,6.1,65,30.12,10.0,SSW,3.5,-,N/A,,Scattered Clouds,210,2013-01-02 00:53:00
8:53 PM,12.9,5.0,71,30.13,10.0,SSW,6.9,-,N/A,,Scattered Clouds,200,2013-01-02 01:53:00
9:53 PM,17.1,7.0,65,30.13,10.0,SSW,8.1,-,N/A,,Mostly Cloudy,210,2013-01-02 02:53:00
10:53 PM,18.0,8.1,65,30.12,10.0,SW,6.9,-,N/A,,Overcast,230,2013-01-02 03:53:00
11:53 PM,17.1,8.1,68,30.13,10.0,SSW,8.1,-,N/A,,Overcast,210,2013-01-02 04:53:00